Location: Beadle
(51.4667°N, 109.0000°W)
Time: 10:47:25
(UTC+00:00)

deb Explorer IX - Pass Details

Date: 04 June 2022
Orbit: 535 x 1068 km, 38.8° (Epoch: 04 July)

Event Time Altitude Azimuth Distance (km) Brightness Sun altitude
Rises 14:24:55 0° 209° (SSW) 3,751 ? 28.3°
Reaches altitude 10° 14:28:37 10° 190° (S) 2,855 ? 28.8°
Maximum altitude 14:32:48 17° 153° (SSE) 2,417 ? 29.5°
Drops below altitude 10° 14:37:02 10° 116° (ESE) 2,893 ? 30.1°
Sets 14:40:48 0° 98° (E) 3,824 ? 30.7°
